Location: 22
(39.7117°N, 89.5929°W)
Time: 06:48:42
(UTC-05:00)

ARIANE 6 FM1 Upper Stage - Pass Details

Date: 12 April 2026
Orbit: 526 x 601 km, 62.0° (Epoch: 18 May)

Event Time Altitude Azimuth Distance (km) Brightness Sun altitude
Rises 04:00:35 0° 328° (NNW) 2,666 6.2 -25.9°
Reaches altitude 10° 04:02:50 10° 334° (NNW) 1,772 5.3 -25.6°
Maximum altitude 04:06:41 49° 50° (NE) 687 3.4 -25.0°
Drops below altitude 10° 04:10:33 10° 127° (SE) 1,773 5.4 -24.4°
Sets 04:12:48 0° 132° (SE) 2,667 6.3 -24.1°
